Tracking 28794 objects as of 19-Apr-2024
HD Live streaming from Space Station
objects crossing your sky now

SL-8 R/B

Track SL-8 R/B now!
10-day predictions


NORAD ID: 15056
Int'l Code: 1984-062B
Perigee: 965.9 km
Apogee: 1,001.1 km
Inclination: 83.0 °
Period: 104.6 minutes
Semi major axis: 7354 km
RCS: 4.5516 m2 (large)
Launch date: June 21, 1984
Source: Commonwealth of Independent States (former USSR) (CIS)
Launch site: PLESETSK MISSILE AND SPACE COMPLEX (PKMTR)

Note: This is a ROCKET BODY
Your satellite tracking list
Your tracking list is empty




NASA's NSSDC Master Catalog

Two Line Element Set (TLE):
1 15056U 84062B   24110.53627170  .00000103  00000-0  90013-4 0  9997
2 15056  82.9532 266.4626 0023924 306.1217 121.9611 13.76479437999830
Source of the keplerian elements: AFSPC